Time,TemperatureF,DewpointF,PressureIn,WindDirection,WindDirectionDegrees,WindSpeedMPH,WindSpeedGustMPH,Humidity,HourlyPrecipIn,Conditions,Clouds,dailyrainin,SolarRadiationWatts/m^2,SoftwareType,DateUTC
2013-03-15 00:05:00,58.5,52.0,30.20,NW,312,14.0,-999.0,80,-99.99,,,0.00,0,weatherlink.com 1.10,2013-03-15 04:05:00,
2013-03-15 00:20:00,58.6,53.0,30.20,NW,309,13.0,-999.0,81,-99.99,,,0.00,0,weatherlink.com 1.10,2013-03-15 04:20:00,
2013-03-15 00:35:00,-999.0,-99.9,30.20,North,-999,-999.0,-999.0,-999,-99.99,,,0.00,,weatherlink.com 1.10,2013-03-15 04:35:00,
2013-03-15 00:50:00,-999.0,-99.9,30.20,North,-999,-999.0,-999.0,-999,-99.99,,,0.00,,weatherlink.com 1.10,2013-03-15 04:50:00,
2013-03-15 01:05:00,58.6,53.0,30.20,NW,304,12.0,-999.0,81,-99.99,,,0.00,,weatherlink.com 1.10,2013-03-15 05:05:00,
2013-03-15 01:20:00,58.6,53.0,30.20,WNW,302,13.0,-999.0,82,-99.99,,,0.00,0,weatherlink.com 1.10,2013-03-15 05:20:00,
2013-03-15 01:35:00,58.6,53.0,30.20,NW,310,14.0,-999.0,82,-99.99,,,0.00,0,weatherlink.com 1.10,2013-03-15 05:35:00,
2013-03-15 01:50:00,58.6,53.0,30.19,NW,309,12.0,-999.0,81,-99.99,,,0.00,0,weatherlink.com 1.10,2013-03-15 05:50:00,
2013-03-15 02:05:00,58.6,53.0,30.19,NW,306,11.0,-999.0,81,-99.99,,,0.00,0,weatherlink.com 1.10,2013-03-15 06:05:00,
2013-03-15 02:20:00,58.5,52.0,30.18,NW,312,13.0,-999.0,80,-99.99,,,0.00,0,weatherlink.com 1.10,2013-03-15 06:20:00,
2013-03-15 02:35:00,58.5,52.0,30.18,NW,310,14.0,-999.0,79,-99.99,,,0.00,0,weatherlink.com 1.10,2013-03-15 06:35:00,
2013-03-15 02:50:00,58.4,51.0,30.18,NW,307,13.0,-999.0,77,-99.99,,,0.00,0,weatherlink.com 1.10,2013-03-15 06:50:00,
2013-03-15 03:05:00,58.4,51.0,30.18,NW,315,11.0,-999.0,75,-99.99,,,0.00,0,weatherlink.com 1.10,2013-03-15 07:05:00,
2013-03-15 03:20:00,58.4,50.0,30.18,NW,313,14.0,-999.0,74,-99.99,,,0.00,0,weatherlink.com 1.10,2013-03-15 07:20:00,
2013-03-15 03:35:00,58.1,49.0,30.18,NW,317,14.0,-999.0,73,-99.99,,,0.00,0,weatherlink.com 1.10,2013-03-15 07:35:00,
2013-03-15 03:50:00,57.9,49.0,30.18,NW,313,14.0,-999.0,73,-99.99,,,0.00,0,weatherlink.com 1.10,2013-03-15 07:50:00,
2013-03-15 04:05:00,57.9,49.0,30.17,NW,315,13.0,-999.0,73,-99.99,,,0.00,0,weatherlink.com 1.10,2013-03-15 08:05:00,
2013-03-15 04:20:00,57.7,49.0,30.17,NW,323,13.0,-999.0,73,-99.99,,,0.00,0,weatherlink.com 1.10,2013-03-15 08:20:00,
2013-03-15 04:35:00,57.5,49.0,30.18,NW,321,12.0,-999.0,72,-99.99,,,0.00,0,weatherlink.com 1.10,2013-03-15 08:35:00,
2013-03-15 04:50:00,57.2,48.0,30.17,NW,309,10.0,-999.0,72,-99.99,,,0.00,0,weatherlink.com 1.10,2013-03-15 08:50:00,
2013-03-15 05:05:00,57.1,48.0,30.18,NW,318,12.0,-999.0,72,-99.99,,,0.00,0,weatherlink.com 1.10,2013-03-15 09:05:00,
2013-03-15 05:20:00,57.1,48.0,30.18,NW,319,13.0,-999.0,71,-99.99,,,0.00,0,weatherlink.com 1.10,2013-03-15 09:20:00,
2013-03-15 05:35:00,57.0,48.0,30.19,NW,323,11.0,-999.0,71,-99.99,,,0.00,0,weatherlink.com 1.10,2013-03-15 09:35:00,
2013-03-15 05:50:00,56.7,47.0,30.19,NW,317,12.0,-999.0,71,-99.99,,,0.00,0,weatherlink.com 1.10,2013-03-15 09:50:00,
2013-03-15 06:05:00,56.3,47.0,30.20,NW,315,12.0,-999.0,72,-99.99,,,0.00,0,weatherlink.com 1.10,2013-03-15 10:05:00,
2013-03-15 06:20:00,55.9,47.0,30.20,NW,321,8.0,-999.0,73,-99.99,,,0.00,0,weatherlink.com 1.10,2013-03-15 10:20:00,
2013-03-15 06:35:00,55.7,48.0,30.21,NW,323,10.0,-999.0,75,-99.99,,,0.00,0,weatherlink.com 1.10,2013-03-15 10:35:00,
2013-03-15 06:50:00,55.6,48.0,30.21,WNW,296,9.0,-999.0,76,-99.99,,,0.00,0,weatherlink.com 1.10,2013-03-15 10:50:00,
2013-03-15 07:05:00,55.3,48.0,30.22,NW,315,11.0,-999.0,77,-99.99,,,0.00,0,weatherlink.com 1.10,2013-03-15 11:05:00,
2013-03-15 07:20:00,54.9,48.0,30.22,NW,316,11.0,-999.0,77,-99.99,,,0.00,0,weatherlink.com 1.10,2013-03-15 11:20:00,
2013-03-15 07:35:00,54.7,48.0,30.22,NW,308,9.0,-999.0,78,-99.99,,,0.00,9,weatherlink.com 1.10,2013-03-15 11:35:00,
2013-03-15 07:50:00,54.5,48.0,30.23,NW,314,10.0,-999.0,78,-99.99,,,0.00,35,weatherlink.com 1.10,2013-03-15 11:50:00,
2013-03-15 08:05:00,54.8,48.0,30.23,WNW,301,8.0,-999.0,78,-99.99,,,0.00,77,weatherlink.com 1.10,2013-03-15 12:05:00,
2013-03-15 08:20:00,55.0,48.0,30.23,NW,306,11.0,-999.0,77,-99.99,,,0.00,116,weatherlink.com 1.10,2013-03-15 12:20:00,
2013-03-15 08:35:00,55.7,49.0,30.24,NW,304,11.0,-999.0,77,-99.99,,,0.00,213,weatherlink.com 1.10,2013-03-15 12:35:00,
2013-03-15 08:50:00,56.4,49.0,30.24,WNW,289,12.0,-999.0,76,-99.99,,,0.00,211,weatherlink.com 1.10,2013-03-15 12:50:00,
2013-03-15 09:05:00,57.2,49.0,30.24,NW,314,12.0,-999.0,75,-99.99,,,0.00,318,weatherlink.com 1.10,2013-03-15 13:05:00,
2013-03-15 09:20:00,58.3,50.0,30.25,WNW,296,12.0,-999.0,73,-99.99,,,0.00,387,weatherlink.com 1.10,2013-03-15 13:20:00,
2013-03-15 09:35:00,59.7,51.0,30.25,NW,304,10.0,-999.0,72,-99.99,,,0.00,434,weatherlink.com 1.10,2013-03-15 13:35:00,
2013-03-15 09:50:00,60.6,51.0,30.25,NW,306,7.0,-999.0,70,-99.99,,,0.00,512,weatherlink.com 1.10,2013-03-15 13:50:00,
2013-03-15 10:05:00,62.2,52.0,30.25,NW,304,11.0,-999.0,69,-99.99,,,0.00,587,weatherlink.com 1.10,2013-03-15 14:05:00,
2013-03-15 10:20:00,64.1,53.0,30.25,NNW,336,8.0,-999.0,67,-99.99,,,0.00,621,weatherlink.com 1.10,2013-03-15 14:20:00,
2013-03-15 10:35:00,65.9,54.0,30.25,NNW,336,11.0,-999.0,65,-99.99,,,0.00,684,weatherlink.com 1.10,2013-03-15 14:35:00,
2013-03-15 10:50:00,67.5,54.0,30.25,NW,321,10.0,-999.0,62,-99.99,,,0.00,719,weatherlink.com 1.10,2013-03-15 14:50:00,
2013-03-15 11:05:00,68.6,55.0,30.25,NNW,330,8.0,-999.0,63,-99.99,,,0.00,766,weatherlink.com 1.10,2013-03-15 15:05:00,
2013-03-15 11:20:00,69.8,55.0,30.25,NNW,339,11.0,-999.0,60,-99.99,,,0.00,803,weatherlink.com 1.10,2013-03-15 15:20:00,
2013-03-15 11:35:00,70.5,55.0,30.24,NNW,339,11.0,-999.0,59,-99.99,,,0.00,837,weatherlink.com 1.10,2013-03-15 15:35:00,
2013-03-15 11:50:00,70.4,55.0,30.24,NNW,343,11.0,-999.0,59,-99.99,,,0.00,863,weatherlink.com 1.10,2013-03-15 15:50:00,
2013-03-15 12:05:00,71.2,56.0,30.25,NW,325,13.0,-999.0,60,-99.99,,,0.00,881,weatherlink.com 1.10,2013-03-15 16:05:00,
2013-03-15 12:20:00,71.2,56.0,30.25,North,5,10.0,-999.0,59,-99.99,,,0.00,889,weatherlink.com 1.10,2013-03-15 16:20:00,
2013-03-15 12:35:00,71.4,57.0,30.24,NNE,22,13.0,-999.0,60,-99.99,,,0.00,911,weatherlink.com 1.10,2013-03-15 16:35:00,
2013-03-15 12:50:00,72.3,58.0,30.24,NNE,13,11.0,-999.0,60,-99.99,,,0.00,902,weatherlink.com 1.10,2013-03-15 16:50:00,
2013-03-15 13:05:00,72.2,57.0,30.24,North,5,6.0,-999.0,60,-99.99,,,0.00,942,weatherlink.com 1.10,2013-03-15 17:05:00,
2013-03-15 13:20:00,72.4,58.0,30.23,North,5,10.0,-999.0,60,-99.99,,,0.00,944,weatherlink.com 1.10,2013-03-15 17:20:00,
2013-03-15 13:35:00,72.9,58.0,30.22,NNE,20,12.0,-999.0,60,-99.99,,,0.00,891,weatherlink.com 1.10,2013-03-15 17:35:00,
2013-03-15 13:50:00,73.5,57.0,30.22,North,360,10.0,-999.0,57,-99.99,,,0.00,933,weatherlink.com 1.10,2013-03-15 17:50:00,
2013-03-15 14:05:00,72.9,57.0,30.21,NNE,27,5.0,-999.0,58,-99.99,,,0.00,900,weatherlink.com 1.10,2013-03-15 18:05:00,
2013-03-15 14:20:00,73.2,57.0,30.20,North,5,9.0,-999.0,58,-99.99,,,0.00,930,weatherlink.com 1.10,2013-03-15 18:20:00,
2013-03-15 14:35:00,73.3,57.0,30.20,NNE,30,12.0,-999.0,57,-99.99,,,0.00,865,weatherlink.com 1.10,2013-03-15 18:35:00,
2013-03-15 14:50:00,73.0,58.0,30.19,NNE,25,8.0,-999.0,59,-99.99,,,0.00,870,weatherlink.com 1.10,2013-03-15 18:50:00,
2013-03-15 15:05:00,73.0,57.0,30.18,NNE,30,15.0,-999.0,58,-99.99,,,0.00,849,weatherlink.com 1.10,2013-03-15 19:05:00,
2013-03-15 15:35:00,72.9,57.0,30.18,NNE,28,6.0,-999.0,58,-99.99,,,0.00,768,weatherlink.com 1.10,2013-03-15 19:35:00,
2013-03-15 15:50:00,72.4,57.0,30.17,North,355,11.0,-999.0,59,-99.99,,,0.00,700,weatherlink.com 1.10,2013-03-15 19:50:00,
2013-03-15 16:05:00,72.1,57.0,30.17,NNE,13,5.0,-999.0,59,-99.99,,,0.00,708,weatherlink.com 1.10,2013-03-15 20:05:00,
2013-03-15 16:20:00,72.6,57.0,30.17,NNE,16,3.0,-999.0,59,-99.99,,,0.00,666,weatherlink.com 1.10,2013-03-15 20:20:00,
2013-03-15 16:35:00,71.9,57.0,30.16,NE,36,4.0,-999.0,59,-99.99,,,0.00,610,weatherlink.com 1.10,2013-03-15 20:35:00,
2013-03-15 16:50:00,71.2,56.0,30.16,NNE,22,5.0,-999.0,60,-99.99,,,0.00,522,weatherlink.com 1.10,2013-03-15 20:50:00,
2013-03-15 17:05:00,70.8,57.0,30.16,North,5,4.0,-999.0,62,-99.99,,,0.00,418,weatherlink.com 1.10,2013-03-15 21:05:00,
2013-03-15 17:20:00,71.0,57.0,30.16,NNE,18,10.0,-999.0,62,-99.99,,,0.00,427,weatherlink.com 1.10,2013-03-15 21:20:00,
2013-03-15 17:35:00,70.6,57.0,30.16,NNE,12,7.0,-999.0,63,-99.99,,,0.00,378,weatherlink.com 1.10,2013-03-15 21:35:00,
2013-03-15 17:50:00,69.5,56.0,30.16,NE,45,6.0,-999.0,62,-99.99,,,0.00,278,weatherlink.com 1.10,2013-03-15 21:50:00,
2013-03-15 18:05:00,69.4,56.0,30.16,North,355,4.0,-999.0,63,-99.99,,,0.00,213,weatherlink.com 1.10,2013-03-15 22:05:00,
2013-03-15 18:20:00,69.0,57.0,30.16,NE,44,8.0,-999.0,66,-99.99,,,0.00,190,weatherlink.com 1.10,2013-03-15 22:20:00,
2013-03-15 18:35:00,68.4,57.0,30.16,NNE,24,9.0,-999.0,66,-99.99,,,0.00,111,weatherlink.com 1.10,2013-03-15 22:35:00,
2013-03-15 18:50:00,68.5,57.0,30.17,NNE,13,5.0,-999.0,67,-99.99,,,0.00,83,weatherlink.com 1.10,2013-03-15 22:50:00,
2013-03-15 19:05:00,67.9,56.0,30.17,NNE,15,8.0,-999.0,66,-99.99,,,0.00,40,weatherlink.com 1.10,2013-03-15 23:05:00,
2013-03-15 19:20:00,67.1,55.0,30.17,NE,39,5.0,-999.0,66,-99.99,,,0.00,12,weatherlink.com 1.10,2013-03-15 23:20:00,
2013-03-15 19:35:00,66.9,56.0,30.17,NNE,22,0.0,-999.0,68,-99.99,,,0.00,0,weatherlink.com 1.10,2013-03-15 23:35:00,
2013-03-15 19:50:00,66.5,56.0,30.17,NW,309,0.0,-999.0,70,-99.99,,,0.00,0,weatherlink.com 1.10,2013-03-15 23:50:00,
2013-03-15 20:05:00,66.3,56.0,30.17,NNW,345,0.0,-999.0,70,-99.99,,,0.00,0,weatherlink.com 1.10,2013-03-16 00:05:00,
2013-03-15 20:20:00,66.2,57.0,30.17,NNW,343,7.0,-999.0,71,-99.99,,,0.00,0,weatherlink.com 1.10,2013-03-16 00:20:00,
2013-03-15 20:35:00,66.0,57.0,30.18,NW,320,5.0,-999.0,72,-99.99,,,0.00,0,weatherlink.com 1.10,2013-03-16 00:35:00,
2013-03-15 20:50:00,65.8,57.0,30.18,North,355,4.0,-999.0,73,-99.99,,,0.00,0,weatherlink.com 1.10,2013-03-16 00:50:00,
2013-03-15 21:05:00,65.4,57.0,30.18,NNW,327,7.0,-999.0,73,-99.99,,,0.00,0,weatherlink.com 1.10,2013-03-16 01:05:00,
2013-03-15 21:20:00,64.9,56.0,30.18,WNW,302,7.0,-999.0,73,-99.99,,,0.00,0,weatherlink.com 1.10,2013-03-16 01:20:00,
2013-03-15 21:35:00,64.7,57.0,30.18,NW,317,5.0,-999.0,75,-99.99,,,0.00,0,weatherlink.com 1.10,2013-03-16 01:35:00,
2013-03-15 21:50:00,64.3,56.0,30.19,NNW,329,5.0,-999.0,75,-99.99,,,0.00,0,weatherlink.com 1.10,2013-03-16 01:50:00,
2013-03-15 22:05:00,64.1,56.0,30.19,NW,317,7.0,-999.0,76,-99.99,,,0.00,0,weatherlink.com 1.10,2013-03-16 02:05:00,
2013-03-15 22:20:00,63.8,56.0,30.19,NW,318,6.0,-999.0,76,-99.99,,,0.00,0,weatherlink.com 1.10,2013-03-16 02:20:00,
2013-03-15 22:35:00,63.5,56.0,30.19,NW,326,8.0,-999.0,76,-99.99,,,0.00,0,weatherlink.com 1.10,2013-03-16 02:35:00,
2013-03-15 22:50:00,63.3,56.0,30.19,NNW,329,6.0,-999.0,76,-99.99,,,0.00,0,weatherlink.com 1.10,2013-03-16 02:50:00,
2013-03-15 23:05:00,63.2,56.0,30.19,NW,317,5.0,-999.0,77,-99.99,,,0.00,0,weatherlink.com 1.10,2013-03-16 03:05:00,
2013-03-15 23:20:00,63.1,56.0,30.19,NW,306,5.0,-999.0,77,-99.99,,,0.00,0,weatherlink.com 1.10,2013-03-16 03:20:00,
2013-03-15 23:35:00,62.7,55.0,30.19,NW,307,4.0,-999.0,77,-99.99,,,0.00,0,weatherlink.com 1.10,2013-03-16 03:35:00,
2013-03-15 23:50:00,62.5,56.0,30.19,NW,314,5.0,-999.0,78,-99.99,,,0.00,0,weatherlink.com 1.10,2013-03-16 03:50:00,